Flag for Germany Weather past 2 weeks in Radolfzell am Bodensee, Baden-Württemberg, Germany

36 °F

Light rain. Overcast.

Feels Like: 31 °F
Forecast: 26 / 38 °F
Wind: 7 mph from West

Location: Konstanz

Current Time: Nov 25, 2015 at 10:24:54 AM

Latest Report: Nov 25, 2015 at 10:00 AM

Visibility: 7 mi

Pressure: 29.88 "Hg

Humidity: 89%

Dew point: 33 °F

Location of Radolfzell am BodenseeLocation

Historic Weather in Radolfzell am Bodensee — Graph


Radolfzell am Bodensee temperature yesterday

Maximum temperature yesterday: 37 °F (at 2:00 PM)
Minimum temperature yesterday: 30 °F (at 6:00 AM)
Average temperature yesterday: 34 °F

Past Weeks' High & Low Weather Summary

High64 °F (Nov 15, 3:00 PM)100% (Nov 11, 7:00 AM)30.50 "Hg (Nov 11, 7:00 AM)
Low30 °F (Nov 24, 6:00 AM)48% (Nov 15, 11:00 AM)29.44 "Hg (Nov 21, 2:00 PM)
Average47 °F77%30.15 "Hg
* Reported Nov 10 9:00 AM — Nov 25 9:00 AM, Radolfzell am Bodensee, Weather by CustomWeather, © 2015

Note: Actual official high and low records may vary slightly from our data, if they occured in-between our weather recording intervals... More about our weather records


Radolfzell am Bodensee weather history for previous 24 hours

Time TempWeatherWind HumidityBarometerVisibility
9:00 AM
Wed, Nov 25
35 °FLight rain. Low clouds.5 mph91%29.89 "Hg6 mi
7:00 AM35 °FLight rain. Low clouds.3 mph92%29.91 "Hg4 mi
4:00 AM34 °FSnow. Low clouds.2 mph92%29.95 "Hg2 mi
3:00 AM34 °FLight snow. Overcast.5 mph88%29.97 "Hg5 mi
2:00 AM35 °FLight snow. Passing clouds.5 mph77%29.98 "Hg22 mi
10:00 PM
Tue, Nov 24
35 °FOvercast.2 mph66%30.09 "Hg16 mi
9:00 PM35 °FOvercast.2 mph67%30.11 "Hg8 mi
8:00 PM34 °FOvercast.2 mph73%30.13 "Hg7 mi
7:00 PM34 °FOvercast.2 mph75%30.15 "Hg8 mi
6:00 PM35 °FOvercast.2 mph72%30.17 "Hg9 mi
5:00 PM35 °FOvercast.2 mph71%30.18 "Hg12 mi
4:00 PM36 °FOvercast.2 mph64%30.19 "Hg14 mi
3:00 PM37 °FOvercast.2 mph61%30.21 "Hg19 mi
2:00 PM37 °FPartly sunny.3 mph59%30.23 "Hg17 mi
1:00 PM36 °FPartly sunny.2 mph63%30.26 "Hg12 mi
12:00 PM35 °FPartly sunny.3 mph65%30.28 "Hg11 mi
11:00 AM33 °FPartly sunny.2 mph71%30.31 "Hg6 mi
10:00 AM32 °FLow clouds.1 mph81%30.32 "Hg6 mi
Weather by CustomWeather, © 2015

See weather overviewHow to use our weather pages